sat.trackr.live / text

‹ back to catalog

EXPRESS-AM5

NORAD 39487 · 2013-077A

PAYLOAD ACTIVE UNKNOWN

§ Identity

Operator
Country
CIS
Launch date
2013-12-26
Launch site
TYMSC
Launch vehicle
Mass (kg)
RCS (m²)
50.12

Purposes: comms

External: N2YO · Heavens-Above · Gunter

§ Orbital elements

Epoch: 2026-05-25T04:24:35.930016Z

Period
1,436.09 min
Inclination
0.0176°
Eccentricity
0.0001222
Mean motion
1.00272244 rev/d
Perigee alt
35,781.3 km
Apogee alt
35,791.6 km
Semi-major
42,164.6 km
B*
0.0000e+0
RAAN
292.3731°
Arg perigee
36.0257°
Mean anomaly
120.5650°
Rev number
4,613

§ Raw data

EXPRESS-AM51 39487U 13077A   26145.18374919 -.00000282  00000+0  00000+0 0  99902 39487   0.0176 292.3731 0001222  36.0257 120.5650  1.00272244 46139

JSON: /api/v1/satellites/39487 · /tle

For live sub-satellite position, see the globe view (requires WebGL).

§ Visibility from observer

Set your observer location to see the next 7 days of passes ≥ 10°. The values pass through the URL so the page stays shareable.

No JS? Fill the form by hand. The geolocation button needs JavaScript.